TimeCDT,TemperatureF,Dew PointF,Humidity,Sea Level PressureIn,VisibilityMPH,Wind Direction,Wind SpeedMPH,Gust SpeedMPH,PrecipitationIn,Events,Conditions,WindDirDegrees,DateUTC
12:56 AM,62.1,60.1,93,30.17,10.0,NNW,3.5,-,N/A,,Clear,340,2012-10-12 05:56:00
1:56 AM,60.1,57.9,93,30.16,7.0,NW,3.5,-,N/A,,Clear,320,2012-10-12 06:56:00
2:56 AM,61.0,59.0,93,30.14,10.0,Calm,Calm,-,N/A,,Clear,0,2012-10-12 07:56:00
3:56 AM,63.0,57.9,84,30.14,6.0,Calm,Calm,-,N/A,,Haze,0,2012-10-12 08:56:00
4:14 AM,57.2,55.4,94,30.18,1.8,Calm,Calm,-,N/A,,Clear,0,2012-10-12 09:14:00
4:31 AM,60.8,57.2,88,30.18,3.0,Calm,Calm,-,N/A,,Clear,0,2012-10-12 09:31:00
4:56 AM,61.0,60.1,97,30.14,10.0,Calm,Calm,-,N/A,,Clear,0,2012-10-12 09:56:00
5:49 AM,55.4,53.6,94,30.20,2.5,Calm,Calm,-,N/A,,Partly Cloudy,0,2012-10-12 10:49:00
5:56 AM,55.9,55.0,97,30.16,1.2,Calm,Calm,-,N/A,,Clear,0,2012-10-12 10:56:00
6:05 AM,55.4,53.6,94,30.20,3.0,Calm,Calm,-,0.01,,Clear,0,2012-10-12 11:05:00
6:44 AM,55.4,53.6,94,30.21,1.8,Calm,Calm,-,0.01,,Clear,0,2012-10-12 11:44:00
6:56 AM,55.0,54.0,96,30.18,2.5,NW,3.5,-,0.01,,Clear,320,2012-10-12 11:56:00
7:05 AM,53.6,53.6,100,30.22,3.0,NNW,3.5,-,N/A,,Clear,330,2012-10-12 12:05:00
7:56 AM,64.0,60.1,87,30.20,10.0,NE,4.6,-,N/A,,Clear,50,2012-10-12 12:56:00
8:56 AM,69.1,62.1,78,30.23,10.0,ENE,3.5,-,N/A,,Clear,60,2012-10-12 13:56:00
9:56 AM,75.0,63.0,66,30.22,10.0,ESE,3.5,-,N/A,,Clear,120,2012-10-12 14:56:00
10:56 AM,80.1,60.1,50,30.23,10.0,Calm,Calm,-,N/A,,Clear,0,2012-10-12 15:56:00
11:56 AM,82.0,62.1,51,30.22,10.0,Calm,Calm,-,N/A,,Clear,0,2012-10-12 16:56:00
12:56 PM,82.9,61.0,47,30.20,10.0,Variable,3.5,-,N/A,,Clear,0,2012-10-12 17:56:00
2:56 PM,84.9,60.1,43,30.15,10.0,Calm,Calm,-,N/A,,Clear,0,2012-10-12 19:56:00
3:56 PM,86.0,61.0,43,30.15,10.0,North,5.8,-,N/A,,Clear,350,2012-10-12 20:56:00
4:56 PM,82.9,64.0,53,30.14,10.0,South,5.8,-,N/A,,Clear,180,2012-10-12 21:56:00
5:56 PM,78.1,64.0,62,30.15,10.0,South,4.6,-,N/A,,Clear,190,2012-10-12 22:56:00
6:56 PM,73.0,63.0,71,30.16,10.0,South,3.5,-,N/A,,Clear,190,2012-10-12 23:56:00
7:56 PM,71.1,63.0,75,30.17,10.0,Calm,Calm,-,N/A,,Clear,0,2012-10-13 00:56:00
8:56 PM,69.1,63.0,81,30.18,10.0,Calm,Calm,-,N/A,,Clear,0,2012-10-13 01:56:00
9:56 PM,66.9,63.0,87,30.18,10.0,Calm,Calm,-,N/A,,Clear,0,2012-10-13 02:56:00
11:56 PM,64.0,62.1,93,30.16,10.0,Calm,Calm,-,N/A,,Clear,0,2012-10-13 04:56:00